Probability
0 0 0 0 0 0 0 0 0 0 0 0 0 0 0 0 0 0 0 0 0 0 0 0 0 0 0 0 0 0 0 0 0 0 0 0 0 0 0 0 0 0 0 0
0 0 0 0 0 0 0 0 0 0 0 0 0 0 0 0 0 0 0 0 0 0 0 0 0 0 0 0 0 0 0 0 0 0 0 0 0 0 0 0 0 0 0 0
0 0 0 0 0 0 0 0 0 0 0 0 0 0 0 0 0 0 0 0 0 0 0 0 0 0 0 0 0 0 0 0 0 0 0 0 0 0 0 0 0 0 0 0
0 0 0 0 0 0 0 0 0 0 0 0 0 0 0 0 0 0 0 0 0 0 0 0 0 0 0 0 0 0 0 0 0 0 0 0 0 0 1 1 0 0 0 0
0 0 0 0 0 0 0 0 0 0 0 0 0 0 0 0 0 0 0 0 0 0 0 0 0 0 0 0 0 0 0 0 0 0 0 0 0 1 2 2 1 1 0 0
0 0 0 0 0 0 0 0 0 0 0 0 0 0 0 0 0 0 0 0 0 0 0 0 0 0 0 0 0 0 0 0 0 0 0 0 0 1 2 3 3 2 1 0
0 0 0 0 0 0 0 0 0 0 0 0 0 0 0 0 0 0 0 0 0 0 0 0 0 0 0 0 0 0 0 0 0 0 0 0 0 1 2 3 3 3 1 0
0 0 0 0 0 0 0 0 0 0 0 0 0 0 0 0 0 0 0 0 0 0 0 0 0 0 0 0 0 0 0 0 0 0 0 0 0 1 2 3 3 3 2 1
0 0 0 0 0 0 0 0 0 0 0 0 0 0 0 0 0 0 0 0 0 0 0 0 0 0 0 0 0 0 0 0 0 0 0 0 0 0 1 2 3 3 3 3
0 0 0 0 0 0 0 0 0 0 0 0 0 0 0 0 0 0 0 0 0 0 0 0 0 0 0 0 0 0 0 0 0 0 0 0 0 0 0 1 2 3 3 3
0 0 0 0 0 0 0 0 0 0 0 0 0 0 0 0 0 0 0 0 0 0 0 0 0 0 0 0 0 0 0 0 0 0 0 0 0 0 0 0 1 2 3 3
0 0 0 0 0 0 0 0 0 0 0 0 0 0 0 0 0 0 0 0 0 0 0 0 0 0 0 0 0 0 0 0 0 0 0 0 0 0 0 0 0 1 2 2
0 0 0 0 0 0 0 0 0 0 0 0 0 0 0 0 0 0 0 0 0 0 0 0 0 0 0 0 0 0 0 0 0 0 0 0 0 0 0 0 0 0 1 1
0 0 0 0 0 0 0 0 0 0 0 0 0 0 0 0 0 0 0 0 0 0 0 0 0 0 0 0 0 0 0 0 0 0 0 0 0 0 0 0 0 0 0 0
0 0 0 0 0 0 0 0 0 0 0 0 0 0 0 0 0 0 0 0 0 0 0 0 0 0 0 0 0 0 0 0 0 0 0 0 0 0 0 0 0 0 0 0
0 0 0 0 0 0 0 0 0 0 0 0 0 0 0 0 0 0 0 0 0 0 0 0 0 0 0 0 0 0 0 0 0 0 0 0 0 0 0 0 0 0 0 0
0 0 0 0 0 0 0 0 0 0 0 0 0 0 0 0 0 0 0 0 0 0 0 0 0 0 0 0 0 0 0 0 0 0 0 0 0 0 0 0 0 0 0 0
0 0 0 0 0 0 0 0 0 0 0 0 0 0 0 0 0 0 0 0 0 0 0 0 0 0 0 0 0 0 0 0 0 0 0 0 0 0 0 0 0 0 0 0
0 0 0 0 0 0 0 0 0 0 0 0 0 0 0 0 0 0 0 0 0 0 0 0 0 0 0 0 0 0 0 0 0 0 0 0 0 0 0 0 0 0 0 0
0 0 0 0 0 0 0 0 0 0 0 0 0 0 0 0 0 0 0 0 0 0 0 0 0 0 0 0 0 0 0 0 0 0 0 0 0 0 0 0 0 0 0 0
0 0 0 0 0 0 0 0 0 0 0 0 0 0 0 0 0 0 0 0 0 0 0 0 0 0 0 0 0 0 0 0 0 0 0 0 0 0 0 0 0 0 0 0
0 0 0 0 0 0 0 0 0 0 0 0 0 0 0 0 0 0 0 0 0 0 0 0 0 0 0 0 0 0 0 0 0 0 0 0 0 0 0 0 0 0 0 0
0 0 0 0 0 0 0 0 0 0 0 0 0 0 0 0 0 0 0 0 0 0 0 0 0 0 0 0 0 0 0 0 0 0 0 0 0 0 0 0 0 0 0 0
0 0 0 0 0 0 0 0 0 0 0 0 0 0 0 0 0 0 0 0 0 0 0 0 0 0 0 0 0 0 0 0 0 0 0 0 0 0 0 0 0 0 0 0
0 0 0 0 0 0 0 0 0 0 0 0 0 0 0 0 0 0 0 0 0 0 0 0 0 0 0 0 0 0 0 0 0 0 0 0 0 0 0 0 0 0 0 0
0 0 0 0 0 0 0 0 0 0 0 0 0 0 0 0 0 0 0 0 0 0 0 0 0 0 0 0 0 0 0 0 0 0 0 0 0 0 0 0 0 0 0 0
Wind_Speed
5 5 4 3 1 1 3 2 2 3 4 4 6 8 8 6 6 8 7 7 6 6 4 3 3 3 2 2 2 1 1 0 1 0 0 0 1 1 1 2 3 3 3 3
4 5 3 1 2 3 3 2 2 3 3 4 6 9 8 6 7 7 7 8 7 6 4 4 3 3 3 3 2 2 2 1 1 0 1 1 2 1 1 1 2 3 3 3
6 3 2 1 2 1 1 1 2 3 6 3 6 6 4 4 4 5 6 7 6 6 6 5 4 4 4 3 3 3 3 2 1 1 0 0 1 1 0 1 2 2 3 3
4 2 1 2 2 2 1 1 2 3 4 2 4 4 3 2 4 5 5 6 6 5 5 5 4 4 4 4 3 3 2 2 1 1 1 1 1 1 1 2 2 3 3 2
3 3 3 2 2 2 1 2 3 3 3 3 2 4 3 1 4 5 5 5 4 4 4 4 4 4 4 3 3 2 2 2 2 2 2 2 2 2 1 1 2 2 2 2
2 1 2 2 2 1 1 1 2 2 2 3 2 3 4 2 3 3 2 2 2 3 3 3 3 3 3 2 2 2 2 2 2 2 2 2 2 3 2 2 2 2 2 2
2 2 2 2 1 1 1 2 1 1 1 2 1 4 5 3 3 3 3 2 2 2 2 2 3 3 3 2 3 2 2 2 2 2 2 2 2 3 3 2 2 2 2 2
1 1 2 3 2 2 2 2 1 2 2 3 1 5 4 3 3 3 3 3 3 2 2 3 3 4 4 4 3 2 2 2 2 2 2 2 2 2 2 2 2 3 2 2
1 1 1 1 2 1 0 1 2 0 1 3 3 5 6 2 3 3 3 2 3 2 3 3 4 4 4 4 3 3 3 2 2 2 2 2 2 3 2 2 3 2 2 2
0 1 2 2 1 1 1 1 1 1 2 3 4 4 4 2 2 2 2 3 3 3 3 3 3 3 3 3 3 3 3 3 3 3 3 2 2 3 3 2 2 2 3 2
0 1 2 1 1 1 1 1 0 1 2 3 4 4 1 4 3 3 3 4 4 4 4 3 3 2 2 2 3 2 2 3 3 3 2 2 2 3 3 2 3 3 3 2
0 0 2 2 0 1 2 2 3 2 2 3 4 6 1 4 4 3 5 4 4 4 4 3 2 2 2 2 3 3 3 3 3 2 2 2 2 2 2 2 2 2 3 2
1 1 1 1 2 1 2 3 3 1 1 3 5 6 1 2 4 4 5 6 5 4 3 3 2 2 2 3 3 3 3 3 3 2 2 2 2 2 2 2 2 2 2 2
1 1 4 4 2 1 4 5 5 4 4 5 9 11 9 8 8 7 7 7 6 5 4 4 3 3 3 3 3 3 3 3 3 2 3 3 3 2 2 2 2 2 2 2
2 3 3 6 6 5 7 8 8 10 10 9 9 11 14 11 9 8 7 6 6 6 5 5 5 4 4 3 3 3 3 3 3 3 3 3 2 2 2 2 2 2 2 2
2 2 1 4 3 5 9 12 12 12 11 13 14 16 13 10 7 7 7 7 7 7 7 6 6 5 5 4 4 4 4 3 3 3 3 3 3 2 2 2 2 2 2 2
3 3 2 4 4 5 9 10 11 9 10 10 12 11 6 6 7 8 7 7 8 8 7 7 6 6 5 5 4 4 4 3 3 4 4 3 3 3 3 2 2 2 3 2
5 4 1 3 3 6 5 1 6 8 10 12 12 11 9 9 9 8 8 9 9 9 8 8 6 6 5 3 3 3 3 4 4 4 4 4 3 3 3 3 3 3 3 3
4 5 3 2 4 10 9 4 6 7 9 11 14 13 10 6 7 7 6 7 8 8 7 6 5 5 3 3 3 3 4 4 4 5 5 4 4 4 3 4 4 3 3 3
2 2 3 3 5 8 5 4 3 3 8 6 10 10 7 2 5 5 2 4 6 6 4 4 3 3 3 3 3 4 4 4 5 6 5 4 4 4 5 5 4 4 3 4
5 4 6 7 8 12 6 5 7 5 6 2 7 7 6 7 7 4 3 3 4 4 4 3 3 3 4 3 3 4 5 6 6 4 4 4 4 5 5 4 4 4 3 3
11 9 9 7 8 12 8 11 11 8 2 2 5 6 8 9 7 5 5 5 4 4 3 3 3 4 3 3 4 4 6 5 3 3 4 4 4 4 3 4 4 4 4 4
12 11 9 13 11 4 11 11 8 3 4 5 5 6 7 7 7 7 6 6 5 5 4 3 3 4 3 3 4 6 5 3 3 3 4 4 4 4 4 4 4 4 4 4
8 5 6 9 14 11 11 12 10 8 9 7 6 5 6 8 8 8 7 6 6 4 4 3 3 4 4 3 4 5 4 2 3 4 4 4 4 4 4 4 4 4 5 5
9 10 8 12 11 8 11 15 15 12 10 9 8 7 8 9 9 8 7 6 5 4 3 3 4 5 6 4 5 4 3 3 4 5 4 4 4 4 4 4 5 6 6 6
12 14 13 13 10 9 8 7 9 10 11 11 9 8 8 8 9 8 7 6 5 5 4 4 4 5 5 4 5 4 3 4 5 5 5 4 4 4 4 4 5 8 9 10
Wind_Direction
34 64 56 34 23 104 148 164 244 281 316 298 269 271 272 254 242 234 220 213 217 223 217 209 206 199 196 207 196 196 204 158 122 101 262 318 323 345 13 7 4 358 353 348
81 57 20 5 100 121 134 160 269 303 331 302 278 274 267 248 238 238 234 223 220 219 216 212 213 209 206 214 223 226 225 215 211 269 271 281 279 262 325 356 351 352 344 338
82 47 348 78 78 91 6 233 249 301 321 284 284 267 247 250 242 248 244 236 225 218 221 220 218 219 211 213 228 242 238 228 236 271 255 340 267 243 283 324 331 336 328 327
67 17 31 53 24 349 326 274 245 279 298 305 308 280 260 268 260 254 244 228 223 219 226 228 226 225 227 225 220 236 248 237 224 212 220 233 279 274 295 309 316 322 319 317
65 15 16 25 349 340 6 298 265 252 259 278 280 259 280 304 270 267 254 229 225 221 224 230 230 228 235 232 226 224 226 242 234 208 218 234 263 271 266 290 299 313 326 325
74 13 354 342 321 282 272 271 236 207 228 264 282 261 274 238 260 275 267 252 242 231 227 234 237 229 230 231 229 217 206 234 244 217 213 222 254 274 269 276 282 300 314 318
41 75 30 327 320 59 331 307 322 303 284 275 337 262 259 288 281 284 293 309 313 279 248 248 252 248 248 242 241 230 215 233 241 224 219 221 241 256 250 265 277 292 301 309
17 28 27 8 358 335 338 320 339 296 288 305 264 255 274 312 303 300 300 307 309 302 275 258 258 256 255 250 245 239 237 249 253 239 231 223 247 256 252 262 269 273 283 291
22 313 16 351 336 294 321 65 353 328 313 277 266 278 288 281 293 296 295 297 295 295 287 275 268 258 250 248 246 245 243 249 247 242 238 228 242 255 252 259 262 267 282 292
82 260 311 318 241 70 340 152 194 210 282 283 285 272 278 296 292 307 306 300 302 294 283 282 273 255 245 243 243 243 241 243 246 241 235 226 234 247 247 247 261 272 280 288
235 191 310 289 230 252 140 151 190 177 273 271 285 280 257 252 256 273 290 297 299 296 291 294 290 270 250 239 235 234 236 234 234 235 233 223 231 239 247 247 255 266 274 282
228 210 275 262 298 311 254 233 207 238 240 249 269 277 304 263 280 287 291 294 297 302 305 302 294 276 240 230 231 234 235 230 228 224 213 216 229 226 236 252 267 276 279 282
165 173 291 260 175 186 243 234 218 231 212 220 240 265 86 295 297 295 289 295 300 302 305 303 291 274 258 246 238 236 237 233 219 203 209 221 228 232 240 257 270 272 279 289
163 204 227 258 307 237 250 239 216 209 222 234 238 263 279 284 290 293 293 292 293 295 294 291 283 273 266 258 250 242 234 217 200 192 210 224 229 235 246 250 260 262 268 276
185 226 244 270 282 275 260 253 231 224 231 239 253 262 275 285 288 288 288 288 289 287 286 281 275 272 267 259 250 235 224 212 196 196 210 223 228 236 248 253 257 263 262 266
187 209 257 279 272 281 274 260 242 237 238 244 261 272 273 286 286 279 276 275 276 277 277 275 272 267 260 251 240 230 224 218 202 204 215 218 219 227 237 251 255 259 263 268
173 166 214 271 318 302 270 241 212 215 220 220 236 252 275 280 276 275 276 269 263 268 271 269 264 259 254 248 231 223 220 211 206 213 220 222 223 233 243 250 249 251 254 261
163 159 194 290 332 256 253 134 203 223 242 228 242 260 267 275 290 282 269 259 259 265 268 268 266 262 256 244 226 214 204 207 213 222 225 223 223 235 244 247 249 255 256 259
192 168 169 212 265 276 282 225 192 213 263 231 233 251 264 289 300 277 253 243 250 260 263 265 264 259 249 231 213 199 208 210 219 227 228 225 221 230 237 243 249 254 254 262
150 177 184 192 234 249 250 156 160 180 270 230 217 238 248 226 277 291 270 250 256 261 259 260 259 247 239 231 201 201 214 215 224 228 228 227 223 227 234 243 249 253 252 259
172 187 205 213 237 260 247 152 154 201 258 206 207 230 212 216 249 299 297 274 262 260 258 249 239 239 238 218 193 209 218 227 230 226 225 228 227 230 234 242 248 251 253 260
182 180 194 189 216 249 177 159 197 225 260 215 223 221 220 235 259 273 273 271 266 263 258 246 242 247 236 207 200 221 235 239 223 215 224 232 232 233 230 235 247 249 249 255
209 201 191 199 219 247 175 203 221 226 238 235 228 230 225 238 253 261 263 265 263 258 254 247 245 254 248 223 215 232 247 237 214 218 233 238 239 240 237 234 240 245 243 246
224 209 216 244 255 248 234 241 246 235 238 245 241 238 225 240 253 259 260 261 263 256 254 252 244 251 257 244 236 245 254 228 213 229 239 237 239 245 241 241 239 240 240 242
207 180 211 246 259 271 250 234 238 240 243 247 248 240 236 242 253 257 260 258 255 254 249 230 234 246 256 255 249 248 239 215 226 238 242 244 242 245 246 245 245 244 246 244
195 190 197 229 216 214 239 222 219 226 234 234 236 244 239 231 244 251 252 254 253 254 250 243 242 247 255 255 255 249 230 216 224 238 242 242 243 243 245 251 262 255 254 261